Regional Weather Roundup
Issued by NWS

Home | Current Version | Previous Version | Graphics & Text | Print | Product List | Glossary On
Versions: 1 2 3 4 5 6 7 8 9 10 11 12 13 14 15 16 17 18 19 20 21 22 23 24 25 26 27 28 29 30 31 32 33 34 35 36 37 38 39 40 41 42 43 44 45 46 47 48 49 50
615
ASUS43 KLSX 171857
RWRMO

WEATHER SUMMARY FOR MISSOURI
NATIONAL WEATHER SERVICE SPRINGFIELD MO
100 PM CST FRI NOV 17 2017

NOTE: "FAIR" INDICATES FEW OR NO CLOUDS BELOW 12,000 FEET WITH NO
       SIGNIFICANT WEATHER AND/OR OBSTRUCTIONS TO VISIBILITY.
       CURRENT SKY AND/OR WEATHER CONDITIONS ARE NOT AVAILABLE FOR
       CHILLICOTHE AND FARMINGTON.

MOZ001>031-035>038-043-044-053-054-172000-
...NORTHERN AND WESTERN MISSOURI...

CITY           SKY/WX    TMP DP  RH WIND       PRES   REMARKS
KANSAS CTY INT CLOUDY    63  58  83 S10       29.57F HAZE
LEE`S SUMMIT   CLOUDY    60  59  96 S14       29.58F FOG
ST JOSEPH      CLOUDY    60  57  89 SE7       29.56F FOG
CHILLICOTHE      N/A     56  55  97 SE7       29.63F

$$
MOZ066>068-077>081-088>096-101>105-172000-
...SOUTHWEST MISSOURI...

CITY           SKY/WX    TMP DP  RH WIND       PRES   REMARKS
SPRINGFIELD    CLOUDY    62  56  80 S17G24    29.71F
JOPLIN         CLOUDY    68  61  78 S22G35    29.65F
BRANSON        CLOUDY    63  55  77 SE9       29.79F

$$
MOZ032>034-039>042-045>050-055>058-069>072-172000-
...CENTRAL MISSOURI...

CITY           SKY/WX    TMP DP  RH WIND       PRES   REMARKS
COLUMBIA       NOT AVBL
JEFFERSON CITY CLOUDY    63  51  65 SE17      29.70F
ROLLA          CLOUDY    59  51  75 S21G33    29.75F
SEDALIA        CLOUDY    63  57  81 S21G29    29.66F
WARRENSBURG    CLOUDY    61  54  77 S16       29.61F

$$
MOZ051-052-059>065-172000-
...EAST CENTRAL MISSOURI...

CITY           SKY/WX    TMP DP  RH WIND       PRES   REMARKS
ST LOUIS INTL  PTSUNNY   51  41  68 S18       29.84F

$$
MOZ072>076-082>087-097>100-106>115-172000-
...SOUTH CENTRAL AND SOUTHEAST MISSOURI...

CITY           SKY/WX    TMP DP  RH WIND       PRES   REMARKS
CAPE GIRARDEAU CLOUDY    51  43  74 SE15G22   29.93F
POPLAR BLUFF   PTSUNNY   57  46  66 SE9       29.93F
WEST PLAINS    CLOUDY    60  53  77 S13G21    29.83F

$$



USA.gov is the U.S. government's official web portal to all federal, state and local government web resources and services.